Location: Cranbrook Institute of Science
(42.5830°N, 83.2450°W)
Time: 04:59:06
(UTC-05:00)

Daily predictions for brighter satellites

Satellite Brightness Start Highest point End
(mag) Time Altitude Azimuth Time Altitude Azimuth Time Altitude Azimuth
Cosmos 2369 Rocket 3.5 04:31:58 36° ENE 04:31:58 36° ENE 04:36:37 10° SE
Lacrosse 4 Rocket 4.3 04:43:15 12° NE 04:43:15 12° NE 04:44:32 10° ENE
Cosmos 1943 Rocket 3.8 04:56:05 23° NNE 04:58:06 29° NE 05:02:50 10° ESE
Cosmos 1943 3.8 04:57:04 39° SSE 04:58:45 52° ESE 05:04:14 10° NNE
Cosmos 1452 Rocket 4.4 05:00:58 43° NE 05:01:41 46° ENE 05:06:44 10° SE
CZ-3 R/B 3.9 04:58:02 12° SW 05:10:21 25° S 05:15:48 10° SE
Tiangong 2 4.0 05:20:00 16° ESE 05:20:00 16° ESE 05:20:47 10° ESE
USA 229 DEB 4.3 05:11:14 10° SSW 05:17:53 55° ESE 05:24:38 10° NE
USA 229 4.3 05:11:22 10° SSW 05:17:59 54° ESE 05:24:44 10° NE
Cosmos 2154 Rocket 4.1 05:14:27 10° S 05:20:37 74° E 05:26:49 10° NNE
SL-16 R/B 4.5 05:29:10 10° N 05:29:10 10° N 05:29:14 10° N
COSMO-SKYMED 1 3.3 05:22:53 10° SSE 05:27:05 51° ENE 05:28:34 34° NNE
Cosmos 1900 4.5 05:26:55 63° NNE 05:27:28 69° ENE 05:32:23 10° SE
Cosmos 1536 3.8 05:25:43 10° S 05:31:50 25° NNE 05:33:38 10° NNE
Lacrosse 5 2.6 05:31:36 40° N 05:31:36 40° N 05:35:25 10° NE
NOAA 6 4.2 05:26:37 10° NNE 05:31:46 72° ESE 05:36:53 10° S
Feng Yun 1-1 Rocket 4.1 05:31:23 10° N 05:36:53 64° WNW 05:42:14 10° SSW
Cosmos 1610 Rocket 4.4 05:31:42 10° SSW 05:37:49 61° W 05:44:03 10° N
Cosmos 2084 3.8 05:39:21 41° S 05:40:18 53° ESE 05:44:02 10° NE
Cosmos 44 3.4 05:41:02 62° WNW 05:41:23 64° NW 05:46:32 10° NNE
CZ-4 R/B 4.4 05:43:38 10° NE 05:46:03 16° E 05:48:27 10° SE
Meteor 1-28 Rocket 4.4 05:43:19 10° SE 05:46:54 42° ENE 05:49:43 15° N
USA 215 3.8 05:40:34 10° NE 05:46:59 57° SE 05:53:21 10° SSW
Cosmos 2263 4.0 05:46:13 38° NNW 05:48:26 79° WSW 05:54:01 10° SSE
Cosmos 1340 3.6 05:47:12 22° NNE 05:49:23 47° ENE 05:53:02 10° SSE
Lacrosse 5 rocket 3.7 05:49:56 13° N 05:50:35 13° NNE 05:52:44 10° NE
Okean 1-7 Rocket 3.6 05:52:12 54° WSW 05:52:12 54° WSW 05:56:04 10° S
Cosmos 1420 Rocket 4.1 05:48:40 22° NNW 05:52:03 74° ENE 05:57:14 10° SSE
SL-23 DEB 3.5 05:53:20 65° NE 05:53:20 65° NE 05:56:40 10° ESE
CENTAUR R/B 4.2 05:56:21 18° NNW 05:56:58 18° NNW 06:01:41 10° NNE
SKYMED 3 4.4 05:52:45 10° S 05:57:04 75° WSW 05:58:57 34° NNW
Meteor 2-13 Rocket 4.4 05:54:31 10° SSW 06:00:33 57° WNW 06:06:37 10° N
Cosmos 1295 Rocket 4.5 05:55:28 10° S 06:01:45 88° ESE 06:08:01 10° N
Ariane Rocket 3.2 05:56:43 10° NNE 06:01:47 72° ESE 06:06:50 10° S
Meteor 1-19 Rocket 4.4 06:00:26 26° NNW 06:03:25 48° W 06:08:53 10° SSW
Cosmos 1048 Rocket 4.2 06:01:32 10° S 06:06:38 72° ESE 06:11:50 10° NNE
Cosmos 1455 Rocket 4.0 06:02:34 10° SSE 06:06:42 48° E 06:10:54 10° NNE
Nadezhda 3 Rocket 4.2 06:04:37 10° NNW 06:10:40 46° W 06:16:40 10° SSW
Cosmos 2218 Rocket 4.4 06:04:25 10° S 06:10:46 70° E 06:17:07 10° NNE
ATLAS 5 CENTAUR R/B 4.4 06:07:43 10° N 06:10:57 15° NNE 06:14:19 10° ENE
DMSP B5D1-3 4.5 06:09:49 10° S 06:14:57 66° WSW 06:20:06 10° NNW
SKYMED 2 3.8 06:10:57 10° S 06:15:08 47° W 06:17:10 27° NW
Cosmos 2369 Rocket 2.8 06:13:48 29° WNW 06:15:20 34° WSW 06:20:23 10° SSW
Cosmos 1975 4.3 06:13:51 10° SSE 06:17:42 40° E 06:21:34 10° NNE
Meteor 1-11 Rocket 4.2 06:14:40 10° SW 06:20:00 37° WNW 06:25:16 10° N
Lacrosse 4 Rocket 1.2 06:19:38 24° NNW 06:22:02 82° WSW 06:26:05 10° SSE
Cosmos 1025 Rocket 3.5 06:20:52 25° NW 06:22:46 39° W 06:26:48 10° SSW
COSMOS 2406 4.0 06:18:19 10° S 06:23:49 56° ESE 06:29:22 10° NNE
GRACE-2 3.7 06:22:34 22° N 06:24:11 76° W 06:26:57 10° S
GRACE-1 3.7 06:23:04 23° N 06:24:37 73° W 06:27:23 10° S
Meteor 2-4 Rocket 4.0 06:20:13 12° NNW 06:24:59 43° W 06:30:20 10° SSW
Meteor 1-23 Rocket 4.3 06:19:41 10° NNW 06:25:02 50° W 06:30:22 10° SSW
ATLAS 3B R/B 4.5 06:20:15 10° NNW 06:25:18 20° NNE 06:30:09 10° ENE
Cosmos 1727 Rocket 4.1 06:25:51 10° N 06:32:04 78° E 06:38:16 10° SSE
Meteor 1-5 Rocket 4.1 06:28:36 10° SSW 06:33:49 56° WNW 06:39:02 10° N
YAOGAN 3 4.5 06:30:40 10° NNE 06:35:03 84° WNW 06:39:25 10° SSW
NOSS 3-1 (C) 3.7 06:29:35 10° SSW 06:35:21 70° ESE 06:41:47 10° NE
SL-27 R/B 2.8 06:35:33 10° S 06:39:06 69° ESE 06:42:44 10° NNE
Abrixas rocket 3.4 06:38:30 22° NW 06:39:50 29° N 06:42:50 10° ENE
Cosmos 1943 Rocket 2.5 06:37:39 14° NW 06:42:00 43° WSW 06:47:09 10° S
YAOGAN 1 3.7 06:38:05 10° NNE 06:42:18 48° E 06:46:29 10° S
Cosmos 1943 4.1 06:39:05 12° WSW 06:43:06 26° NW 06:47:47 10° N
Meteor 2-19 Rocket 4.4 06:37:27 10° SSW 06:43:30 63° W 06:49:34 10° N
Cosmos 1110 Rocket 4.4 06:39:08 10° NNW 06:44:21 66° ENE 06:49:31 10° SSE
Cosmos 1515 3.6 06:42:48 10° N 06:46:40 87° W 06:50:29 10° S
Cosmos 864 Rocket 4.4 06:44:11 10° SSW 06:50:18 72° W 06:56:31 10° N
Helios 1B rocket 2.7 06:46:25 10° SSE 06:50:32 70° ENE 06:54:41 10° N
Cosmos 1602 Rocket 3.7 06:46:59 10° N 06:51:28 79° E 06:55:55 10° S
Tiangong 2 3.4 06:52:03 10° WSW 06:53:50 14° SSW 06:55:39 10° S
Cosmos 158 Rocket 4.0 06:49:44 10° SSW 06:54:59 62° WNW 07:00:22 10° NNE
Cosmos 1544 Rocket 4.1 06:51:46 10° SW 06:55:49 37° WNW 06:59:56 10° N
IDEFIX/ARIANE 42P 2.8 06:51:08 10° NNE 06:56:22 75° ESE 07:01:34 10° S
CZ-4C R/B 4.2 06:51:26 10° NNW 06:57:32 32° NE 07:04:14 10° E
Cosmos 1656 Rocket 3.7 06:52:46 10° NNW 06:58:25 71° WSW 07:04:04 10° SSE
Cosmos 839 Rocket 4.3 06:52:56 10° NW 06:59:05 47° WSW 07:04:54 10° S
USA 129 3.1 06:58:26 10° SSW 07:00:14 22° W 07:01:15 16° WNW
COSMO-SKYMED 1 4.3 07:01:04 10° SW 07:03:32 15° W 07:05:46 11° WNW
Cosmos 1461 3.2 07:01:29 10° SW 07:05:36 44° NW 07:09:35 10° NNE
SJ-7 4.4 07:01:48 10° NNE 07:05:58 89° WNW 07:10:02 10° SSW
PAYLOAD A 4.2 07:02:52 10° N 07:08:11 58° WNW 07:13:30 10° SSW
CZ-2C R/B 2.5 07:03:09 10° N 07:08:19 81° WNW 07:13:19 10° SSW
USA 229 DEB 4.2 07:02:47 10° WSW 07:09:06 37° NW 07:15:33 10° NNE
USA 229 4.2 07:02:53 10° WSW 07:09:12 37° NW 07:15:38 10° NNE
Cosmos 1500 3.4 07:10:53 10° SSW 07:14:31 48° WNW 07:18:12 10° N
Lacrosse 5 3.5 07:11:02 10° WNW 07:14:34 18° NNW 07:18:07 10° NNE
Cosmos 1809 Rocket 4.5 07:09:14 10° SSW 07:15:25 78° W 07:21:38 10° N
Cosmos 1302 Rocket 4.4 07:12:18 10° NNW 07:17:35 67° ENE 07:22:50 10° SSE
Cosmos 1743 2.8 07:14:30 10° S 07:18:24 85° E 07:22:20 10° N
CZ-4 R/B 1.8 07:17:37 10° N 07:21:16 38° WNW 07:24:52 10° SW
Cosmos 1980 Rocket 4.5 07:18:37 10° NNE 07:21:32 14° NE 07:24:28 10° ENE
CZ-4 R/B 4.4 07:19:00 10° N 07:23:11 76° WNW 07:27:19 10° SSW
NOSS 3-1 (A) 3.4 07:17:25 10° SW 07:23:17 76° NW 07:29:53 10° NE
SMAP 3.2 07:20:25 10° N 07:24:59 56° WNW 07:29:32 10° SSW
Meteor 2-15 4.5 07:20:17 10° N 07:26:25 82° W 07:32:28 10° S
